AEHF-4 (USA 288)

Last updated on Sun Apr 12 2026 00:02:55 GMT+0000 (Coordinated Universal Time)

1 43651U 18079A 26101.50725734 -.00000274 00000+0 00000+0 0 9999 2 43651 1.4232 358.0368 0063600 358.8904 317.9108 1.00272289 27625
UTC large
Height (km)
Speed (km/s)
/
Latitude / Longitude
Inclination (degrees)
Orbital Period (minutes)
Azimuth
Elevation
Range (km)
Doppler Factor

Next 0 passes for location: London (51.5072 / 0.1276)

Sorry there are no passes over London.
AEHF-4 (USA 288)